Location: Old Broadwell Mill Observatory
(33.8015°N, 85.8137°W)
Time: 07:14:42
(UTC-06:00)

Amateur Radio Satellites - All Passes

Search period start: 28 November 2014 06:44
Search period end: 29 November 2014 06:44
Location: Old Broadwell Mill Observatory, 33.8015°N, 85.8137°W

Satellite Date Start Highest point End Downlink Frequencies (MHz)
Time Altitude Azimuth
Cubesat XI-IV 28 Nov 06:50:54 06:55:38 34° 290° (WNW) 07:00:21 437.490
CUBESAT XI-V 28 Nov 06:52:31 06:55:53 19° 266° (W) 06:59:17 437.345
CUTE-I 28 Nov 07:33:17 07:35:59 14° 296° (WNW) 07:38:41 437.470
AIST 1 28 Nov 07:36:40 07:37:28 10° 275° (W) 07:38:16
COMPASS 1 28 Nov 07:42:22 07:42:51 10° 92° (E) 07:43:19 437.405
CANX-2 28 Nov 07:42:45 07:45:39 18° 94° (E) 07:48:33 2200.000
GONETS M04 28 Nov 08:06:15 08:14:59 68° 278° (W) 08:23:49
CUTE 1.7 + AOD 2 28 Nov 08:16:05 08:20:09 40° 99° (E) 08:24:12 437.475
BRITE-PL 28 Nov 08:21:26 08:25:25 44° 100° (E) 08:29:32 437.365/2234.400
DOVE 4 28 Nov 08:25:07 08:28:38 25° 97° (E) 08:32:16 437.250
UNISAT 6 28 Nov 08:39:10 08:41:32 15° 68° (ENE) 08:43:55 437.425
CINEMA 3 28 Nov 08:42:42 08:46:11 24° 97° (E) 08:49:46 145.822/145.860
HO-68 28 Nov 08:43:27 08:50:39 80° 105° (ESE) 08:57:48 435.675
SEEDS 28 Nov 08:45:44 08:50:02 83° 102° (ESE) 08:54:19 437.485
DELFI C3 28 Nov 08:50:38 08:54:04 25° 96° (E) 08:57:30 145.870
UKube-1 28 Nov 08:52:28 08:56:08 26° 97° (E) 08:59:47 .
POLYITAN 1 28 Nov 08:56:53 08:59:32 16° 68° (ENE) 09:02:10 437.675
AAUSAT CUBESAT 2 28 Nov 08:57:29 09:01:44 84° 102° (ESE) 09:05:59 437.432
QB50P2 28 Nov 08:57:48 09:00:30 17° 68° (ENE) 09:03:12 145.880/145.840
FUNcube-1 28 Nov 09:00:11 09:02:53 16° 95° (E) 09:05:36 145.935
Oscar 11 28 Nov 09:01:27 09:05:35 42° 99° (E) 09:09:43 145.826/435.025
DUCHIFAT 1 28 Nov 09:01:54 09:04:49 18° 69° (ENE) 09:07:44 145.980
AISAT 28 Nov 09:05:33 09:06:29 11° 92° (E) 09:07:25 437.250
ANTELSAT 28 Nov 09:06:39 09:10:25 31° 72° (ENE) 09:14:10 437.575/2403.000
COMPASS 1 28 Nov 09:14:41 09:18:49 51° 285° (WNW) 09:22:56 437.405
CANX-2 28 Nov 09:17:48 09:21:36 31° 288° (WNW) 09:25:24 2200.000
GOMX 1 28 Nov 09:18:13 09:22:17 51° 285° (WNW) 09:26:31 467.674
NANOSAT C BR1 28 Nov 09:20:49 09:24:33 30° 72° (ENE) 09:28:17 145.865
HUMSAT D 28 Nov 09:25:56 09:28:56 19° 95° (E) 09:31:56 437.325/437.525
BUGSAT 1 28 Nov 09:28:18 09:32:03 31° 72° (ENE) 09:35:46 437.445
DX 1 28 Nov 09:30:03 09:34:25 81° 103° (ESE) 09:38:44 434.975-435.025
QB50P1 28 Nov 09:30:48 09:34:47 40° 73° (ENE) 09:38:46 145.935-145.965
UWE-3 28 Nov 09:31:28 09:35:37 47° 100° (E) 09:39:51 435.000/436.395/437.385
CUBEBUG 2 28 Nov 09:36:27 09:40:44 65° 101° (E) 09:45:07 437.445
CUTE 1.7 + AOD 2 28 Nov 09:53:26 09:55:42 14° 292° (WNW) 09:57:58 437.475
POPSAT HIP 1 28 Nov 09:55:39 09:59:55 84° 77° (ENE) 10:04:11 437.405
TIGRISAT 28 Nov 09:58:37 10:02:49 59° 259° (W) 10:07:01 435.000
ZACube-1 28 Nov 10:00:43 10:05:01 88° 282° (WNW) 10:09:24 437.345
BRITE-PL 28 Nov 10:02:07 10:03:35 12° 292° (WNW) 10:05:04 437.365/2234.400
DOVE 4 28 Nov 10:03:04 10:06:17 22° 289° (WNW) 10:09:36 437.250
VELOX 1 28 Nov 10:11:06 10:15:30 69° 102° (ESE) 10:19:53 145.980
UNISAT 6 28 Nov 10:14:02 10:17:59 37° 261° (W) 10:21:58 437.425
ESTCUBE 1 28 Nov 10:19:16 10:23:14 29° 97° (E) 10:27:10 437.505/2401.250
CINEMA 3 28 Nov 10:19:53 10:23:17 23° 289° (WNW) 10:26:47 145.822/145.860
DELFI C3 28 Nov 10:26:08 10:29:12 20° 290° (WNW) 10:32:15 145.870
UKube-1 28 Nov 10:28:51 10:32:07 21° 291° (WNW) 10:35:23 .
POLYITAN 1 28 Nov 10:31:18 10:35:11 34° 262° (W) 10:39:03 437.675
50 SAT 28 Nov 10:31:53 10:35:57 77° 284° (WNW) 10:40:03 437.505
QB50P2 28 Nov 10:32:17 10:36:08 33° 262° (W) 10:39:59 145.880/145.840
HO-68 28 Nov 10:33:13 10:37:29 17° 301° (WNW) 10:41:45 435.675
FUNcube-1 28 Nov 10:35:25 10:39:17 34° 287° (WNW) 10:43:12 145.935
DUCHIFAT 1 28 Nov 10:36:42 10:40:27 30° 262° (W) 10:44:12 145.980
AISAT 28 Nov 10:39:05 10:43:23 53° 286° (WNW) 10:47:40 437.250
Oscar 11 28 Nov 10:39:06 10:41:22 14° 293° (WNW) 10:43:37 145.826/435.025
CUBEBUG 1 28 Nov 10:42:16 10:46:31 52° 100° (E) 10:50:43 437.445
ANTELSAT 28 Nov 10:44:28 10:47:15 17° 265° (W) 10:50:03 437.575/2403.000
NANOSAT C BR1 28 Nov 10:57:36 11:00:27 17° 265° (W) 11:03:18 145.865
HUMSAT D 28 Nov 11:01:08 11:04:42 28° 288° (WNW) 11:08:18 437.325/437.525
SO-50 28 Nov 11:03:02 11:07:14 28° 53° (NE) 11:11:25 436.795
BUGSAT 1 28 Nov 11:04:42 11:07:33 17° 265° (W) 11:10:24 437.445
QB50P1 28 Nov 11:08:49 11:10:49 13° 267° (W) 11:12:49 145.935-145.965
UWE-3 28 Nov 11:09:58 11:11:45 12° 293° (WNW) 11:13:33 435.000/436.395/437.385
TISAT 1 28 Nov 11:37:32 11:41:40 54° 100° (E) 11:45:46 437.305
ITAMSAT 1 28 Nov 11:52:14 11:54:07 12° 63° (ENE) 11:56:01 435.822/435.867
SPROUT 28 Nov 11:55:33 11:59:51 81° 102° (ESE) 12:04:07 437.525
VERMONT LUNAR 28 Nov 11:56:10 11:59:30 37° 147° (SSE) 12:02:51 437.305
PHONESAT 2.4 28 Nov 11:56:16 11:59:20 25° 145° (SE) 12:02:26 2401.200-2431.200
ESTCUBE 1 28 Nov 11:56:31 11:59:54 21° 291° (WNW) 12:03:16 437.505/2401.250
ITUPSAT 1 28 Nov 12:02:55 12:05:04 13° 93° (E) 12:07:12 437.325
SWISSCUBE 28 Nov 12:11:45 12:15:05 19° 95° (E) 12:18:23 437.505
CUSAT 1 28 Nov 12:20:16 12:22:57 54° 279° (W) 12:25:30 437.405
CUBEBUG 1 28 Nov 12:21:00 12:22:23 11° 294° (WNW) 12:23:45 437.445
Oscar 19 28 Nov 12:28:45 12:33:50 80° 76° (ENE) 12:38:58 437.125/150
YUBILEINY 28 Nov 12:31:03 12:39:18 45° 78° (ENE) 12:47:28 435.215
Gurwin Techsat 1B 28 Nov 12:37:51 12:41:37 20° 67° (ENE) 12:45:23 435.225
BEESAT 28 Nov 12:41:20 12:45:45 36° 98° (E) 12:50:08 436.000
SO-50 28 Nov 12:43:28 12:47:44 30° 248° (WSW) 12:51:59 436.795
AUBIESAT-1 28 Nov 12:57:06 13:01:56 58° 105° (ESE) 13:06:31 437.475
DANDE 28 Nov 12:59:07 13:00:55 16° 282° (WNW) 13:02:39 436.750
M-CUBED/EXP-1 PRIME 28 Nov 13:04:12 13:09:09 78° 106° (ESE) 13:13:51 437.505
MaSat-1 28 Nov 13:13:21 13:15:45 21° 109° (ESE) 13:18:00 437.345
TISAT 1 28 Nov 13:16:21 13:16:59 10° 294° (WNW) 13:17:38 437.305
ITAMSAT 1 28 Nov 13:27:45 13:32:57 72° 258° (WSW) 13:38:10 435.822/435.867
PHONESAT 2.4 28 Nov 13:34:17 13:37:57 62° 339° (NNW) 13:41:38 2401.200-2431.200
VERMONT LUNAR 28 Nov 13:34:27 13:37:56 46° 342° (NNW) 13:41:26 437.305
ITUPSAT 1 28 Nov 13:38:33 13:43:12 52° 286° (WNW) 13:47:50 437.325
SWISSCUBE 28 Nov 13:48:38 13:53:00 36° 288° (WNW) 13:57:21 437.505
O/OREOS (USA 219) 28 Nov 13:48:54 13:50:09 11° 58° (ENE) 13:51:23 437.305
RS-15 28 Nov 14:00:48 14:10:36 39° 107° (ESE) 14:20:14 29.354- 29.394
KKS-1 28 Nov 14:00:59 14:05:20 53° 100° (E) 14:09:40 437.445
AO-7 28 Nov 14:11:40 14:19:06 39° 64° (ENE) 14:26:33 29.400- 29.500
HORYU 2 28 Nov 14:13:46 14:18:10 80° 76° (ENE) 14:22:37 437.375
Gurwin Techsat 1B 28 Nov 14:16:11 14:21:13 43° 261° (W) 14:26:16 435.225
BEESAT 28 Nov 14:19:55 14:23:17 19° 292° (WNW) 14:26:39 436.000
YUBILEINY 28 Nov 14:28:19 14:35:44 33° 274° (W) 14:43:08 435.215
AUBIESAT-1 28 Nov 14:33:44 14:36:19 15° 300° (WNW) 14:38:52 437.475
M-CUBED/EXP-1 PRIME 28 Nov 14:41:59 14:43:26 11° 301° (WNW) 14:44:52 437.505
MaSat-1 28 Nov 14:49:47 14:50:08 10° 299° (WNW) 14:50:28 437.345
STARS 28 Nov 14:50:57 14:55:16 58° 285° (WNW) 14:59:34 437.465
VERMONT LUNAR 28 Nov 15:13:45 15:16:53 27° 359° (N) 15:20:01 437.305
PHONESAT 2.4 28 Nov 15:13:52 15:17:08 29° 355° (N) 15:20:25 2401.200-2431.200
O/OREOS (USA 219) 28 Nov 15:25:30 15:29:55 60° 253° (WSW) 15:34:20 437.305
JAS-2 28 Nov 15:27:15 15:34:15 41° 68° (ENE) 15:41:25 435.910
MOZHAYETS 4 28 Nov 15:28:03 15:29:17 11° 92° (E) 15:30:31
KKS-1 28 Nov 15:39:54 15:41:28 12° 294° (WNW) 15:43:02 437.445
AO-7 28 Nov 16:04:01 16:11:41 42° 260° (W) 16:19:27 29.400- 29.500
RS-15 28 Nov 16:11:53 16:22:29 52° 306° (NW) 16:33:06 29.354- 29.394
Cubesat XI-IV 28 Nov 16:29:33 16:34:06 29° 69° (ENE) 16:38:38 437.490
VERMONT LUNAR 28 Nov 16:52:23 16:55:51 42° 16° (NNE) 16:59:19 437.305
PHONESAT 2.4 28 Nov 16:53:02 16:56:29 36° 13° (NNE) 16:59:56 2401.200-2431.200
MOZHAYETS 4 28 Nov 17:02:14 17:06:48 57° 285° (WNW) 17:11:21
CUTE-I 28 Nov 17:09:11 17:14:30 70° 75° (ENE) 17:19:50 437.470
JAS-2 28 Nov 17:12:10 17:19:06 38° 264° (W) 17:26:19 435.910
PRISM 28 Nov 17:12:17 17:15:53 27° 97° (E) 17:19:26 437.425
CUBESAT XI-V 28 Nov 17:17:26 17:18:49 11° 92° (E) 17:20:11 437.345
STRAND 1 28 Nov 17:19:03 17:20:49 12° 92° (E) 17:22:35 437.568
BEESAT 3 28 Nov 17:31:22 17:32:26 11° 107° (ESE) 17:33:31 437.485
BEESAT 2 28 Nov 17:47:41 17:50:13 16° 109° (ESE) 17:52:47 435.950
Cubesat XI-IV 28 Nov 18:09:24 18:14:03 30° 263° (W) 18:18:43 437.490
GONETS M04 28 Nov 18:21:36 18:30:08 51° 79° (E) 18:38:33
AIST 1 28 Nov 18:21:45 18:25:44 35° 91° (E) 18:29:45
VERMONT LUNAR 28 Nov 18:30:53 18:34:21 44° 211° (SSW) 18:37:48 437.305
PCSat 28 Nov 18:31:12 18:36:36 81° 296° (WNW) 18:42:03 145.827
PHONESAT 2.4 28 Nov 18:31:45 18:35:26 66° 208° (SSW) 18:39:06 2401.200-2431.200
RS-15 28 Nov 18:32:36 18:38:15 15° 334° (NNW) 18:43:59 29.354- 29.394
AIST 2 28 Nov 18:34:15 18:37:46 26° 111° (ESE) 18:41:19 435.215
PRISM 28 Nov 18:48:07 18:51:14 20° 291° (WNW) 18:54:19 437.425
CUBESAT XI-V 28 Nov 18:52:00 18:56:33 55° 285° (WNW) 19:01:02 437.345
CUTE-I 28 Nov 18:53:17 18:54:58 11° 268° (W) 18:56:40 437.470
STRAND 1 28 Nov 18:55:19 19:00:21 63° 286° (WNW) 19:05:21 437.568
BEESAT 3 28 Nov 19:06:11 19:10:09 50° 301° (WNW) 19:14:11 437.485
CUTE 1.7 + AOD 2 28 Nov 19:06:32 19:09:27 18° 69° (ENE) 19:12:22 437.475
HO-68 28 Nov 19:07:49 19:14:23 40° 67° (ENE) 19:20:58 435.675
BEESAT 2 28 Nov 19:24:24 19:28:10 35° 303° (WNW) 19:32:01 435.950
DOVE 4 28 Nov 19:28:14 19:31:17 18° 70° (ENE) 19:34:13 437.250
BRITE-PL 28 Nov 19:28:27 19:33:02 37° 74° (ENE) 19:37:17 437.365/2234.400
SEEDS 28 Nov 19:34:42 19:38:28 34° 73° (ENE) 19:42:16 437.485
DELFI C3 28 Nov 19:38:56 19:39:20 10° 66° (ENE) 19:39:44 145.870
CINEMA 3 28 Nov 19:42:33 19:44:54 14° 69° (ENE) 19:47:12 145.822/145.860
UKube-1 28 Nov 19:45:13 19:47:42 15° 67° (ENE) 19:50:12 .
AAUSAT CUBESAT 2 28 Nov 19:45:24 19:49:08 33° 73° (ENE) 19:52:53 437.432
Oscar 11 28 Nov 19:53:23 19:56:35 21° 70° (ENE) 19:59:48 145.826/435.025
AIST 1 28 Nov 20:00:51 20:03:29 15° 286° (WNW) 20:06:07
COMPASS 1 28 Nov 20:02:25 20:06:32 64° 76° (ENE) 20:10:40 437.405
CANX-2 28 Nov 20:06:36 20:10:48 72° 259° (W) 20:15:01 2200.000
PHONESAT 2.4 28 Nov 20:12:48 20:13:44 11° 221° (SW) 20:14:41 2401.200-2431.200
AIST 2 28 Nov 20:12:53 20:16:19 24° 306° (NW) 20:19:48 435.215
GONETS M04 28 Nov 20:19:15 20:26:25 29° 276° (W) 20:33:34
PCSat 28 Nov 20:19:39 20:20:51 11° 313° (NW) 20:22:02 145.827
DX 1 28 Nov 20:22:01 20:26:08 42° 73° (ENE) 20:30:16 434.975-435.025
GOMX 1 28 Nov 20:22:20 20:27:08 77° 258° (WSW) 20:31:37 467.674
UWE-3 28 Nov 20:26:01 20:29:23 24° 71° (ENE) 20:32:43 435.000/436.395/437.385
CUBEBUG 2 28 Nov 20:31:45 20:35:33 32° 73° (ENE) 20:39:18 437.445
CUTE 1.7 + AOD 2 28 Nov 20:41:28 20:45:08 29° 263° (W) 20:48:50 437.475
ZACube-1 28 Nov 20:53:29 20:57:27 42° 74° (ENE) 21:01:24 437.345
RS-15 28 Nov 20:55:01 20:58:02 11° 14° (NNE) 21:01:04 29.354- 29.394
HO-68 28 Nov 20:55:44 21:02:02 33° 262° (W) 21:08:24 435.675
DOVE 4 28 Nov 21:04:40 21:08:50 33° 262° (W) 21:12:48 437.250
VELOX 1 28 Nov 21:05:23 21:09:31 38° 72° (ENE) 21:13:38 145.980
BRITE-PL 28 Nov 21:08:09 21:11:33 18° 264° (W) 21:14:48 437.365/2234.400
DELFI C3 28 Nov 21:10:11 21:14:08 51° 260° (W) 21:18:07 145.870
SEEDS 28 Nov 21:11:56 21:14:22 15° 266° (W) 21:16:50 437.485
ESTCUBE 1 28 Nov 21:16:13 21:19:20 18° 68° (ENE) 21:22:27 437.505/2401.250
50 SAT 28 Nov 21:17:11 21:20:55 38° 74° (ENE) 21:24:39 437.505
CINEMA 3 28 Nov 21:17:42 21:21:48 38° 261° (W) 21:25:47 145.822/145.860
UKube-1 28 Nov 21:19:26 21:23:30 39° 261° (W) 21:27:36 .
AAUSAT CUBESAT 2 28 Nov 21:22:26 21:24:52 15° 266° (W) 21:27:20 437.432
JUGNU 28 Nov 21:23:59 21:27:19 16° 168° (SSE) 21:30:39 437.505
FUNcube-1 28 Nov 21:27:25 21:31:36 70° 259° (WSW) 21:35:45 145.935
Oscar 11 28 Nov 21:28:56 21:32:34 27° 263° (W) 21:36:14 145.826/435.025
AISAT 28 Nov 21:33:12 21:37:41 84° 76° (ENE) 21:42:10 437.250
CUBEBUG 1 28 Nov 21:35:12 21:38:59 28° 71° (ENE) 21:42:45 437.445
ISS 28 Nov 21:36:48 21:40:02 60° 318° (NW) 21:43:18 145.825
SRMSAT 28 Nov 21:43:26 21:43:51 10° 163° (SSE) 21:44:16 437.500
POPSAT HIP 1 28 Nov 21:46:18 21:49:14 18° 95° (E) 21:52:10 437.405
HUMSAT D 28 Nov 21:49:09 21:53:15 64° 259° (W) 21:57:20 437.325/437.525
TIGRISAT 28 Nov 21:54:15 21:58:24 37° 99° (E) 22:02:38 435.000
DANDE 28 Nov 21:58:37 22:01:29 14° 77° (ENE) 22:04:43 436.750
DX 1 28 Nov 22:00:19 22:02:31 14° 266° (W) 22:04:43 434.975-435.025
UWE-3 28 Nov 22:02:34 22:05:50 22° 264° (W) 22:09:05 435.000/436.395/437.385
UNISAT 6 28 Nov 22:09:28 22:13:54 57° 101° (E) 22:18:26 437.425
CUBEBUG 2 28 Nov 22:09:43 22:12:18 16° 265° (W) 22:14:52 437.445
POLYITAN 1 28 Nov 22:20:49 22:24:56 50° 100° (E) 22:29:03 437.675
QB50P2 28 Nov 22:21:33 22:25:41 51° 100° (E) 22:29:48 145.880/145.840
DUCHIFAT 1 28 Nov 22:25:28 22:29:37 56° 101° (E) 22:33:44 145.980
TISAT 1 28 Nov 22:27:00 22:30:30 25° 71° (ENE) 22:33:59 437.305
ZACube-1 28 Nov 22:32:29 22:34:00 12° 267° (W) 22:35:31 437.345
ANTELSAT 28 Nov 22:38:36 22:43:04 65° 284° (WNW) 22:47:38 437.575/2403.000
VELOX 1 28 Nov 22:43:30 22:46:11 16° 266° (W) 22:48:53 145.980
NANOSAT C BR1 28 Nov 22:45:23 22:49:36 79° 283° (WNW) 22:53:48 145.865
SPROUT 28 Nov 22:46:13 22:50:11 37° 73° (ENE) 22:54:09 437.525
BUGSAT 1 28 Nov 22:49:50 22:53:54 86° 283° (WNW) 22:57:55 437.445
ESTCUBE 1 28 Nov 22:51:46 22:55:54 35° 262° (W) 23:00:05 437.505/2401.250
50 SAT 28 Nov 22:54:41 22:56:21 12° 267° (W) 22:58:01 437.505
QB50P1 28 Nov 22:55:48 22:59:57 58° 285° (WNW) 23:04:05 145.935-145.965
CUSAT 1 28 Nov 22:59:35 23:04:54 66° 82° (E) 23:11:57 437.405
RS-15 28 Nov 23:05:29 23:15:27 35° 47° (NE) 23:25:44 29.354- 29.394
ITUPSAT 1 28 Nov 23:08:02 23:08:53 10° 64° (ENE) 23:09:45 437.325
JUGNU 28 Nov 23:11:25 23:15:39 20° 178° (S) 23:19:54 437.505
CUBEBUG 1 28 Nov 23:11:55 23:15:17 21° 264° (W) 23:18:41 437.445
SWISSCUBE 28 Nov 23:15:45 23:18:24 15° 66° (ENE) 23:21:03 437.505
POPSAT HIP 1 28 Nov 23:21:30 23:25:07 29° 288° (WNW) 23:28:45 437.405
SRMSAT 28 Nov 23:28:21 23:32:19 18° 172° (S) 23:36:17 437.500
TIGRISAT 28 Nov 23:31:56 23:34:51 17° 291° (WNW) 23:37:49 435.000
DANDE 28 Nov 23:39:39 23:44:49 65° 263° (W) 23:51:44 436.750
AUBIESAT-1 28 Nov 23:43:03 23:46:52 39° 67° (ENE) 23:51:00 437.475
BEESAT 28 Nov 23:44:31 23:48:33 28° 70° (ENE) 23:52:36 436.000
UNISAT 6 28 Nov 23:48:42 23:50:12 12° 294° (WNW) 23:51:43 437.425
M-CUBED/EXP-1 PRIME 28 Nov 23:50:25 23:54:22 53° 69° (ENE) 23:58:42 437.505
POLYITAN 1 28 Nov 23:59:08 00:00:25 11° 294° (WNW) 00:01:42 437.675
QB50P2 28 Nov 23:59:57 00:01:07 11° 294° (WNW) 00:02:17 145.880/145.840
TISAT 1 29 Nov 00:02:58 00:06:15 22° 264° (W) 00:09:32 437.305
SPROUT 29 Nov 00:23:54 00:26:22 15° 266° (W) 00:28:50 437.525
MaSat-1 29 Nov 00:29:15 00:30:32 13° 252° (WSW) 00:31:52 437.345
ITUPSAT 1 29 Nov 00:41:20 00:46:07 71° 258° (WSW) 00:50:57 437.325
Oscar 19 29 Nov 00:44:31 00:49:20 39° 99° (E) 00:54:09 437.125/150
CUSAT 1 29 Nov 00:44:46 00:47:56 15° 268° (W) 00:51:30 437.405
SWISSCUBE 29 Nov 00:51:10 00:55:48 49° 260° (W) 01:00:28 437.505
KKS-1 29 Nov 00:55:53 00:59:46 30° 71° (ENE) 01:03:39 437.445
JUGNU 29 Nov 01:00:13 01:04:01 18° 189° (S) 01:07:50 437.505
SO-50 29 Nov 01:15:07 01:18:17 19° 109° (ESE) 01:21:32 436.795
SRMSAT 29 Nov 01:16:31 01:20:51 21° 182° (S) 01:25:12 437.500
RS-15 29 Nov 01:17:21 01:28:31 67° 247° (WSW) 01:40:12 29.354- 29.394
AUBIESAT-1 29 Nov 01:19:48 01:22:04 14° 264° (W) 01:24:27 437.475
BEESAT 29 Nov 01:22:23 01:26:18 25° 264° (W) 01:30:14 436.000
YUBILEINY 29 Nov 01:26:27 01:35:02 60° 91° (E) 01:43:35 435.215
M-CUBED/EXP-1 PRIME 29 Nov 01:29:18 01:29:50 10° 266° (W) 01:30:23 437.505
STARS 29 Nov 01:44:08 01:48:31 75° 76° (ENE) 01:52:55 437.465
ITAMSAT 1 29 Nov 01:44:42 01:49:48 57° 101° (E) 01:54:51 435.822/435.867
HORYU 2 29 Nov 02:10:07 02:13:33 21° 96° (E) 02:16:58 437.375
AO-7 29 Nov 02:20:12 02:23:55 13° 92° (E) 02:27:36 29.400- 29.500
Oscar 19 29 Nov 02:24:34 02:28:22 21° 293° (WNW) 02:32:10 437.125/150
KKS-1 29 Nov 02:33:11 02:36:24 19° 265° (W) 02:39:37 437.445
Gurwin Techsat 1B 29 Nov 02:36:05 02:41:24 78° 284° (WNW) 02:46:41 435.225
SO-50 29 Nov 02:54:24 02:58:31 35° 305° (NW) 03:02:47 436.795
SRMSAT 29 Nov 03:06:00 03:09:22 15° 192° (SSW) 03:12:44 437.500
PCSat 29 Nov 03:23:21 03:28:19 35° 58° (ENE) 03:33:14 145.827
YUBILEINY 29 Nov 03:25:19 03:32:15 26° 288° (WNW) 03:39:12 435.215
ITAMSAT 1 29 Nov 03:25:57 03:28:45 15° 295° (WNW) 03:31:33 435.822/435.867
BEESAT 3 29 Nov 03:29:58 03:33:40 29° 55° (NE) 03:37:18 437.485
RS-15 29 Nov 03:38:02 03:38:51 10° 263° (W) 03:39:42 29.354- 29.394
HORYU 2 29 Nov 03:46:19 03:50:10 29° 289° (WNW) 03:54:02 437.375
BEESAT 2 29 Nov 03:48:02 03:52:02 41° 58° (ENE) 03:55:58 435.950
O/OREOS (USA 219) 29 Nov 03:55:27 03:59:02 24° 102° (ESE) 04:02:38 437.305
MOZHAYETS 4 29 Nov 04:00:07 04:04:42 84° 77° (ENE) 04:09:20
PRISM 29 Nov 04:01:10 04:03:07 13° 66° (ENE) 04:05:04 437.425
ISS 29 Nov 04:08:38 04:11:24 24° 36° (NE) 04:14:10 145.825
AO-7 29 Nov 04:09:09 04:17:34 86° 107° (ESE) 04:25:56 29.400- 29.500
JAS-2 29 Nov 04:27:10 04:33:30 44° 97° (E) 04:39:06 435.910
STRAND 1 29 Nov 04:31:30 04:33:42 13° 64° (ENE) 04:35:54 437.568
AIST 2 29 Nov 04:37:37 04:41:55 71° 61° (ENE) 04:46:07 435.215
Cubesat XI-IV 29 Nov 04:51:53 04:54:53 15° 93° (E) 04:57:52 437.490
PCSat 29 Nov 05:07:06 05:11:30 26° 253° (WSW) 05:15:54 145.827
BEESAT 3 29 Nov 05:08:37 05:11:40 20° 250° (WSW) 05:14:40 437.485
BEESAT 2 29 Nov 05:27:46 05:29:54 14° 252° (WSW) 05:32:02 435.950
CUTE-I 29 Nov 05:30:41 05:35:36 38° 99° (E) 05:40:29 437.470
PRISM 29 Nov 05:34:14 05:38:14 43° 260° (W) 05:42:17 437.425
O/OREOS (USA 219) 29 Nov 05:34:37 05:38:18 25° 296° (WNW) 05:41:59 437.305
ISS 29 Nov 05:45:12 05:47:59 25° 230° (SW) 05:50:45 145.825
CUBESAT XI-V 29 Nov 05:51:12 05:55:55 90° 69° (ENE) 06:00:40 437.345
AO-7 29 Nov 06:03:59 06:09:17 19° 304° (NW) 06:14:35 29.400- 29.500
STRAND 1 29 Nov 06:07:10 06:12:16 66° 258° (WSW) 06:17:24 437.568
AIST 1 29 Nov 06:10:16 06:14:38 89° 264° (W) 06:18:56
JAS-2 29 Nov 06:12:46 06:18:08 26° 296° (WNW) 06:23:02 435.910
Cubesat XI-IV 29 Nov 06:30:04 06:35:14 54° 287° (WNW) 06:40:22 437.490
